Location: Saratoga Springs
(43.0831°N, 73.7850°W)
Time: 11:54:50
(UTC-04:00)

Vanguard 1 Rocket - Pass Details

Date: 18 April 2024
Orbit: 651 x 4220 km, 34.3° (Epoch: 19 May)

Event Time Altitude Azimuth Distance (km) Brightness Sun altitude
Rises 21:48:28 0° 256° (WSW) 3,500 10.9 -21.1°
Reaches altitude 10° 21:50:36 10° 250° (WSW) 2,785 10.2 -21.4°
Maximum altitude 21:57:01 48° 177° (S) 1,820 8.6 -22.2°
Enters shadow 22:01:07 34° 128° (SE) 2,658 9.1 -22.8°
